FW1161 Weather Reports


Display with metric or nautical units.
time (UTC)temp
F
wind
direction
speed
MPH
gust
MPH
rain 1hr
in
rain 24hr
in
rain mn
in
humidity
%
barometer
mb
20260506230030 69 270 1.0 5.0 0.00 0.11 0.11 78 999.8
20260506224540 69 262 2.0 7.0 0.00 0.11 0.11 79 999.8
20260506223002 69 292 1.0 4.0 0.00 0.11 0.11 78 999.6
20260506221533 68 276 1.0 8.0 0.00 0.11 0.11 80 999.8
20260506220051 68 306 3.0 12.0 0.00 0.11 0.11 80 999.6
20260506214516 68 258 2.0 17.0 0.00 0.11 0.11 81 999.6
20260506213035 67 271 2.0 10.0 0.00 0.11 0.11 81 999.5
20260506211504 67 261 2.0 6.0 0.00 0.11 0.11 81 999.4
20260506210024 67 273 3.0 16.0 0.00 0.11 0.11 81 999.4
20260506204549 67 286 3.0 15.0 0.00 0.11 0.11 82 999.3
20260506203011 66 260 3.0 13.0 0.00 0.11 0.11 83 999.2
20260506201600 66 294 3.0 8.0 0.00 0.11 0.11 84 999.4
20260506200011 66 280 1.0 9.0 0.00 0.11 0.11 85 999.4
20260506194536 65 306 1.0 9.0 0.00 0.11 0.11 86 999.5
20260506193035 64 275 2.0 7.0 0.00 0.11 0.11 86 999.8
20260506191505 64 276 3.0 14.0 0.00 0.11 0.11 87 1000.0
20260506190019 64 268 3.0 15.0 0.00 0.11 0.11 87 1000.0
20260506184544 64 292 3.0 8.0 0.00 0.11 0.11 87 1000.1
20260506183006 63 273 4.0 13.0 0.00 0.11 0.11 88 1000.2
20260506181553 64 237 3.0 11.0 0.00 0.11 0.11 86 1000.2
20260506180006 63 270 2.0 6.0 0.01 0.11 0.11 87 1000.2
20260506174519 63 263 1.0 5.0 0.01 0.11 0.11 88 1000.3
20260506173039 63 257 2.0 10.0 0.01 0.11 0.11 88 1000.4
20260506171603 63 256 3.0 8.0 0.02 0.11 0.11 89 1000.4
20260506170022 63 236 1.0 5.0 0.03 0.10 0.10 90 1000.3
20260506164546 63 260 0.0 3.0 0.05 0.10 0.10 91 1000.5
20260506163005 63 267 0.0 5.0 0.07 0.10 0.10 91 1000.6
20260506161524 62 272 0.0 3.0 0.08 0.09 0.09 90 1001.4
20260506154524 63 275 1.0 3.0 0.05 0.05 0.05 88 1001.9
20260506153048 64 263 0.0 3.0 0.03 0.03 0.03 86 1001.8
20260506151510 65 285 1.0 5.0 0.01 0.01 0.01 81 1001.9
20260506150021 66 277 1.0 4.0 0.00 0.00 0.00 77 1001.5
20260506143055 67 289 4.0 16.0 0.00 0.00 0.00 71 1001.8
20260506141558 68 277 2.0 6.0 0.00 0.00 0.00 70 1001.8
20260506140005 68 259 3.0 19.0 0.00 0.00 0.00 71 1001.6
20260506134535 67 252 2.0 9.0 0.00 0.00 0.00 72 1001.6
20260506133119 67 270 1.0 11.0 0.00 0.00 0.00 73 1001.7
20260506131601 67 272 3.0 10.0 0.00 0.00 0.00 73 1001.7
20260506130030 67 267 3.0 8.0 0.00 0.00 0.00 73 1002.1
20260506124558 67 246 2.0 5.0 0.00 0.00 0.00 75 1001.8
20260506123009 66 303 2.0 4.0 0.00 0.00 0.00 75 1001.8
20260506121551 66 273 1.0 4.0 0.00 0.00 0.00 77 1001.6
20260506120011 65 268 2.0 10.0 0.00 0.00 0.00 78 1001.9
20260506114527 65 278 2.0 7.0 0.00 0.00 0.00 78 1001.9
20260506113057 65 274 1.0 6.0 0.00 0.00 0.00 78 1001.8
20260506111518 65 277 0.0 6.0 0.00 0.00 0.00 79 1001.8
20260506110006 64 237 1.0 8.0 0.00 0.00 0.00 79 1001.7
20260506104522 64 296 2.0 5.0 0.00 0.00 0.00 80 1001.8
20260506103007 64 275 0.0 5.0 0.00 0.00 0.00 81 1001.7
20260506101536 64 253 1.0 6.0 0.00 0.00 0.00 81 1001.6
20260506100108 64 252 1.0 5.0 0.00 0.00 0.00 81 1001.7
20260506094505 64 292 1.0 5.0 0.00 0.00 0.00 81 1001.4
20260506093032 64 270 1.0 6.0 0.00 0.00 0.00 80 1001.4
20260506091556 65 233 1.0 8.0 0.00 0.00 0.00 80 1001.5
20260506090019 65 262 1.0 5.0 0.00 0.00 0.00 80 1001.6
20260506084553 64 266 1.0 5.0 0.00 0.00 0.00 80 1001.6
20260506083007 64 251 1.0 3.0 0.00 0.00 0.00 81 1001.7
20260506081533 65 266 0.0 4.0 0.00 0.00 0.00 80 1001.8
20260506073052 65 273 0.0 5.0 0.00 0.00 0.00 78 1001.9
20260506071508 66 253 0.0 3.0 0.00 0.00 0.00 78 1001.9
20260506061543 67 276 0.0 7.0 0.00 0.00 0.00 76 1002.2
20260506044509 67 251 2.0 6.0 0.00 0.00 0.00 71 1002.6
20260506043036 68 246 1.0 5.0 0.00 0.00 0.00 70 1002.6
20260506041603 68 267 0.0 4.0 0.00 0.00 0.00 68 1002.7
20260506040011 69 263 1.0 5.0 0.00 0.00 0.00 67 1002.7
20260506034609 69 242 1.0 7.0 0.00 0.00 0.00 66 1002.5
20260506033106 69 243 1.0 7.0 0.00 0.00 0.00 65 1002.4
20260506031538 69 256 1.0 6.0 0.00 0.00 0.00 64 1002.5
20260506030051 69 265 1.0 6.0 0.00 0.00 0.00 63 1002.6
20260506024526 69 244 1.0 5.0 0.00 0.00 0.00 63 1002.6
20260506023056 70 268 1.0 4.0 0.00 0.00 0.00 63 1002.7
20260506021516 70 243 0.0 3.0 0.00 0.00 0.00 62 1002.7
20260506020047 70 237 0.0 4.0 0.00 0.00 0.00 61 1002.6
20260506014557 71 238 1.0 5.0 0.00 0.00 0.00 59 1002.5
20260506013010 72 240 1.0 6.0 0.00 0.00 0.00 55 1002.3
20260506011524 73 249 0.0 5.0 0.00 0.00 0.00 52 1002.2
20260506010120 74 278 0.0 4.0 0.00 0.00 0.00 50 1002.1
20260506004526 75 247 1.0 6.0 0.00 0.00 0.00 47 1002.0
20260506003100 75 256 0.0 7.0 0.00 0.00 0.00 44 1001.8
20260506001513 76 263 1.0 4.0 0.00 0.00 0.00 44 1001.7
20260506000037 77 286 2.0 6.0 0.00 0.00 0.00 43 1001.5
20260505234501 77 259 2.0 6.0 0.00 0.00 0.00 44 1001.3
20260505233039 77 251 4.0 7.0 0.00 0.00 0.00 43 1001.3
20260505231600 78 244 2.0 6.0 0.00 0.00 0.00 43 1001.2